OK4PZ-5 Weather Reports


time (UTC)temp
F
wind
direction
speed
knots
gust
knots
rain 1hr
in
rain 24hr
in
rain mn
in
humidity
%
barometer
mb
20260504033002 51 46 0.0 0.9 0.00 0.00 0.00 69 1015.0
20260504031503 51 46 0.9 1.7 0.00 0.00 0.00 67 1015.0
20260504030002 51 48 1.7 1.7 0.00 0.00 0.00 67 1015.0
20260504024502 52 52 0.9 1.7 0.00 0.00 0.00 67 1016.0
20260504023002 52 51 1.7 2.6 0.00 0.00 0.00 65 1015.0
20260504021502 52 41 0.9 2.6 0.00 0.00 0.00 65 1015.0
20260504020002 52 10 1.7 3.5 0.00 0.00 0.00 65 1016.0
20260504014502 53 33 0.9 2.6 0.00 0.00 0.00 64 1015.0
20260504013001 53 20 0.9 1.7 0.00 0.00 0.00 63 1015.0
20260504011502 53 40 0.0 2.6 0.00 0.00 0.00 63 1015.0
20260504010002 54 38 1.7 1.7 0.00 0.00 0.00 63 1015.0
20260504004501 54 29 0.9 1.7 0.00 0.00 0.00 62 1015.0
20260504003003 54 34 1.7 2.6 0.00 0.00 0.00 63 1015.0
20260504001502 55 36 3.5 3.5 0.00 0.00 0.00 61 1015.0
20260504000002 55 19 0.0 0.9 0.00 0.00 0.00 61 1015.0
20260503234502 56 39 0.0 0.0 0.00 0.00 0.00 58 1015.0
20260503233003 56 39 1.7 2.6 0.00 0.00 0.00 58 1015.0
20260503231502 56 23 0.9 1.7 0.00 0.00 0.00 58 1015.0
20260503230002 57 38 0.0 1.7 0.00 0.00 0.00 56 1015.0
20260503224502 58 124 0.9 1.7 0.00 0.00 0.00 53 1015.0
20260503223002 59 83 0.0 0.9 0.00 0.00 0.00 52 1015.0
20260503221502 60 127 3.5 6.1 0.00 0.00 0.00 50 1015.0
20260503220003 60 54 0.9 5.2 0.00 0.00 0.00 50 1015.0
20260503214502 60 94 1.7 2.6 0.00 0.00 0.00 50 1015.0
20260503213004 61 86 0.9 0.9 0.00 0.00 0.00 50 1016.0
20260503211502 61 103 1.7 3.5 0.00 0.00 0.00 49 1016.0
20260503210002 62 111 3.5 5.2 0.00 0.00 0.00 48 1016.0
20260503204502 62 121 3.5 5.2 0.00 0.00 0.00 48 1016.0
20260503203002 62 110 1.7 7.0 0.00 0.00 0.00 47 1016.0
20260503201502 63 129 1.7 3.5 0.00 0.00 0.00 47 1016.0
20260503200003 63 105 3.5 5.2 0.00 0.00 0.00 47 1016.0
20260503194502 63 160 1.7 2.6 0.00 0.00 0.00 47 1016.0
20260503193002 64 121 0.0 0.9 0.00 0.00 0.00 46 1016.0
20260503191502 65 115 0.0 0.9 0.00 0.00 0.00 45 1016.0
20260503190003 65 115 0.0 1.7 0.00 0.00 0.00 45 1016.0
20260503184503 66 79 0.9 2.6 0.00 0.00 0.00 45 1016.0
20260503183002 67 104 3.5 7.0 0.00 0.00 0.00 43 1016.0
20260503181503 67 83 1.7 3.5 0.00 0.00 0.00 43 1016.0
20260503180002 68 133 0.9 2.6 0.00 0.00 0.00 42 1016.0
20260503174502 69 97 2.6 7.8 0.00 0.00 0.00 39 1016.0
20260503173002 70 128 1.7 7.8 0.00 0.00 0.00 39 1015.0
20260503171502 71 108 5.2 6.1 0.00 0.00 0.00 37 1015.0
20260503081502 67 156 0.0 1.7 0.00 0.00 0.00 43 1019.0
20260503071502 65 126 0.9 1.7 0.00 0.00 0.00 43 1020.0
20260503054502 55 31 0.9 2.6 0.00 0.00 0.00 58 1019.0
20260503053003 50 0 0.0 0.0 0.00 0.00 0.00 74 1019.0
20260503051503 45 20 0.0 0.9 0.00 0.00 0.00 82 1020.0
20260503050002 42 22 0.0 0.0 0.00 0.00 0.00 87 1019.0
20260503044502 40 22 0.0 0.0 0.00 0.00 0.00 88 1019.0
20260503043002 39 22 0.0 0.0 0.00 0.00 0.00 90 1019.0
20260503041501 38 22 0.0 0.0 0.00 0.00 0.00 91 1019.0
20260503040002 37 22 0.0 0.0 0.00 0.00 0.00 93 1019.0
20260503034502 37 22 0.0 0.0 0.00 0.00 0.00 93 1019.0